User: anonymous   Login
Location: Strawberry
(45.6646°N, 111.9596°W)
Time: 13:24:11
(UTC+00:00)
Language:

BEESAT 2 - Orbit

View from above orbital plane
View from above orbital plane
View from above satellite
View from above satellite

Ground track
Ground track

The orbit data is extracted from the following two-line orbital elements,

1 39136U 13015G   22342.20433238  .00020277  00000-0  75960-3 0  9998
2 39136  64.8740 259.5318 0025176 289.7952  70.0464 15.27031078532880
Epoch (UTC): 08 December 2022 04:54:14
Eccentricity: 0.0025176
inclination: 64.8740°
perigee height: 467 km
apogee height: 502 km
right ascension of ascending node: 259.5318°
argument of perigee: 289.7952°
revolutions per day: 15.27031078
mean anomaly at epoch: 70.0464°
orbit number at epoch: 53288

The dashed part of the orbit path shows where the satellite is in the earth's shadow,  

DLR